Wetterdaten: Donnerstag, 01.10.2015
Datum Zeit Temp. A. Feuchte A. Luftdruck Regen Wind Richtung Richtung Sonnenschein ET UV Solar Taupunkt Windchill Windben Empfang
01.10.2015 00:01 5,3 C 71 % 1030,1 hPa 0,0 l/m 0,0 km/h (0 Bft) O 83 0 min 0,000 mm 0,0 UV-I 0 W/m 0,5 C 5,3 C 0,0 km/h (0 Bft) 0,00 %
01.10.2015 00:06 5,4 C 72 % 1029,8 hPa 0,0 l/m 0,7 km/h (0 Bft) O-NO 76 0 min 0,000 mm 0,0 UV-I 0 W/m 0,8 C 5,4 C 4,0 km/h (1 Bft) 0,00 %
01.10.2015 00:11 5,1 C 75 % 1029,9 hPa 0,0 l/m 2,9 km/h (1 Bft) O-NO 74 0 min 0,000 mm 0,0 UV-I 0 W/m 1,0 C 5,1 C 4,0 km/h (1 Bft) 0,00 %
01.10.2015 00:16 4,8 C 76 % 1030,0 hPa 0,0 l/m 1,4 km/h (1 Bft) O-NO 59 0 min 0,000 mm 0,0 UV-I 0 W/m 0,9 C 4,8 C 4,0 km/h (1 Bft) 0,00 %
01.10.2015 00:21 4,7 C 76 % 1030,0 hPa 0,0 l/m 3,2 km/h (1 Bft) O-SO 106 0 min 0,000 mm 0,0 UV-I 0 W/m 0,8 C 4,7 C 4,0 km/h (1 Bft) 0,00 %
01.10.2015 00:26 4,7 C 76 % 1030,0 hPa 0,0 l/m 0,4 km/h (0 Bft) O 98 0 min 0,000 mm 0,0 UV-I 0 W/m 0,8 C 4,7 C 4,0 km/h (1 Bft) 0,00 %
01.10.2015 00:31 4,8 C 74 % 1029,9 hPa 0,0 l/m 1,8 km/h (1 Bft) O-NO 74 0 min 0,000 mm 0,0 UV-I 0 W/m 0,6 C 4,8 C 4,0 km/h (1 Bft) 0,00 %
01.10.2015 00:36 4,9 C 74 % 1029,7 hPa 0,0 l/m 4,0 km/h (1 Bft) O 85 0 min 0,000 mm 0,0 UV-I 0 W/m 0,7 C 4,9 C 7,9 km/h (2 Bft) 0,00 %
01.10.2015 00:41 5,0 C 74 % 1029,7 hPa 0,0 l/m 0,0 km/h (0 Bft) O-NO 63 0 min 0,000 mm 0,0 UV-I 0 W/m 0,8 C 5,0 C 0,0 km/h (0 Bft) 0,00 %
01.10.2015 00:46 5,0 C 74 % 1029,8 hPa 0,0 l/m 4,0 km/h (1 Bft) O 96 0 min 0,000 mm 0,0 UV-I 0 W/m 0,8 C 5,0 C 7,9 km/h (2 Bft) 0,00 %
01.10.2015 00:51 5,0 C 76 % 1029,5 hPa 0,0 l/m 1,8 km/h (1 Bft) O-NO 66 0 min 0,000 mm 0,0 UV-I 0 W/m 1,1 C 5,0 C 4,0 km/h (1 Bft) 0,00 %
01.10.2015 00:56 4,9 C 76 % 1029,4 hPa 0,0 l/m 0,0 km/h (0 Bft) O-SO 115 0 min 0,000 mm 0,0 UV-I 0 W/m 1,0 C 4,9 C 0,0 km/h (0 Bft) 0,00 %
01.10.2015 01:01 4,8 C 77 % 1029,6 hPa 0,0 l/m 0,0 km/h (0 Bft) O-NO 72 0 min 0,000 mm 0,0 UV-I 0 W/m 1,1 C 4,8 C 0,0 km/h (0 Bft) 0,00 %
01.10.2015 01:06 4,7 C 77 % 1029,6 hPa 0,0 l/m 1,8 km/h (1 Bft) O-NO 73 0 min 0,000 mm 0,0 UV-I 0 W/m 1,0 C 4,7 C 4,0 km/h (1 Bft) 0,00 %
01.10.2015 01:11 4,7 C 77 % 1029,6 hPa 0,0 l/m 0,7 km/h (0 Bft) O-SO 115 0 min 0,000 mm 0,0 UV-I 0 W/m 1,0 C 4,7 C 4,0 km/h (1 Bft) 0,00 %
01.10.2015 01:16 4,8 C 77 % 1029,7 hPa 0,0 l/m 0,0 km/h (0 Bft) O-SO 119 0 min 0,000 mm 0,0 UV-I 0 W/m 1,1 C 4,8 C 0,0 km/h (0 Bft) 0,00 %
01.10.2015 01:21 4,7 C 77 % 1029,2 hPa 0,0 l/m 2,9 km/h (1 Bft) O 86 0 min 0,000 mm 0,0 UV-I 0 W/m 1,0 C 4,7 C 4,0 km/h (1 Bft) 0,00 %
01.10.2015 01:26 4,6 C 78 % 1029,2 hPa 0,0 l/m 0,0 km/h (0 Bft) O 83 0 min 0,000 mm 0,0 UV-I 0 W/m 1,1 C 4,6 C 0,0 km/h (0 Bft) 0,00 %
01.10.2015 01:31 4,4 C 79 % 1029,1 hPa 0,0 l/m 0,0 km/h (0 Bft) O-NO 61 0 min 0,000 mm 0,0 UV-I 0 W/m 1,1 C 4,4 C 0,0 km/h (0 Bft) 0,00 %
01.10.2015 01:36 4,2 C 80 % 1029,2 hPa 0,0 l/m 0,0 km/h (0 Bft) O-NO 69 0 min 0,000 mm 0,0 UV-I 0 W/m 1,1 C 4,2 C 0,0 km/h (0 Bft) 0,00 %
01.10.2015 01:41 4,1 C 80 % 1029,3 hPa 0,0 l/m 0,0 km/h (0 Bft) NO 52 0 min 0,000 mm 0,0 UV-I 0 W/m 1,0 C 4,1 C 0,0 km/h (0 Bft) 0,00 %
01.10.2015 01:47 4,0 C 80 % 1029,2 hPa 0,0 l/m 2,9 km/h (1 Bft) O-SO 105 0 min 0,000 mm 0,0 UV-I 0 W/m 0,9 C 4,0 C 4,0 km/h (1 Bft) 0,00 %
01.10.2015 01:52 4,0 C 80 % 1029,0 hPa 0,0 l/m 0,0 km/h (0 Bft) SO 127 0 min 0,000 mm 0,0 UV-I 0 W/m 0,9 C 4,0 C 0,0 km/h (0 Bft) 0,00 %
01.10.2015 01:57 4,0 C 81 % 1029,0 hPa 0,0 l/m 0,7 km/h (0 Bft) O 84 0 min 0,000 mm 0,0 UV-I 0 W/m 1,0 C 4,0 C 4,0 km/h (1 Bft) 0,00 %
01.10.2015 02:02 3,9 C 82 % 1029,0 hPa 0,0 l/m 0,0 km/h (0 Bft) O-NO 68 0 min 0,000 mm 0,0 UV-I 0 W/m 1,1 C 3,9 C 0,0 km/h (0 Bft) 0,00 %
01.10.2015 02:07 3,7 C 83 % 1028,9 hPa 0,0 l/m 0,4 km/h (0 Bft) O-NO 59 0 min 0,000 mm 0,0 UV-I 0 W/m 1,1 C 3,7 C 4,0 km/h (1 Bft) 0,00 %
01.10.2015 02:12 3,4 C 83 % 1029,0 hPa 0,0 l/m 0,0 km/h (0 Bft) O-NO 73 0 min 0,000 mm 0,0 UV-I 0 W/m 0,8 C 3,4 C 0,0 km/h (0 Bft) 0,00 %
01.10.2015 02:17 3,3 C 84 % 1028,8 hPa 0,0 l/m 2,2 km/h (1 Bft) NO 54 0 min 0,000 mm 0,0 UV-I 0 W/m 0,9 C 3,3 C 7,9 km/h (2 Bft) 0,00 %
01.10.2015 02:22 3,3 C 84 % 1028,7 hPa 0,0 l/m 1,8 km/h (1 Bft) O-SO 110 0 min 0,000 mm 0,0 UV-I 0 W/m 0,9 C 3,3 C 4,0 km/h (1 Bft) 0,00 %
01.10.2015 02:27 3,4 C 85 % 1028,8 hPa 0,0 l/m 0,7 km/h (0 Bft) NO 47 0 min 0,000 mm 0,0 UV-I 0 W/m 1,1 C 3,4 C 4,0 km/h (1 Bft) 0,00 %
01.10.2015 02:32 3,4 C 85 % 1028,8 hPa 0,0 l/m 0,4 km/h (0 Bft) O 79 0 min 0,000 mm 0,0 UV-I 0 W/m 1,1 C 3,4 C 4,0 km/h (1 Bft) 0,00 %
01.10.2015 02:37 3,4 C 85 % 1028,7 hPa 0,0 l/m 0,7 km/h (0 Bft) O-NO 63 0 min 0,000 mm 0,0 UV-I 0 W/m 1,1 C 3,4 C 4,0 km/h (1 Bft) 0,00 %
01.10.2015 02:42 3,5 C 85 % 1028,9 hPa 0,0 l/m 0,0 km/h (0 Bft) O 94 0 min 0,000 mm 0,0 UV-I 0 W/m 1,2 C 3,5 C 0,0 km/h (0 Bft) 0,00 %
01.10.2015 02:47 3,6 C 85 % 1029,0 hPa 0,0 l/m 0,0 km/h (0 Bft) O-NO 65 0 min 0,000 mm 0,0 UV-I 0 W/m 1,3 C 3,6 C 0,0 km/h (0 Bft) 0,00 %
01.10.2015 02:52 3,6 C 85 % 1028,8 hPa 0,0 l/m 2,9 km/h (1 Bft) O 101 0 min 0,000 mm 0,0 UV-I 0 W/m 1,3 C 3,6 C 4,0 km/h (1 Bft) 0,00 %
01.10.2015 02:57 3,7 C 85 % 1028,6 hPa 0,0 l/m 2,9 km/h (1 Bft) O 87 0 min 0,000 mm 0,0 UV-I 0 W/m 1,4 C 3,7 C 4,0 km/h (1 Bft) 0,00 %
01.10.2015 03:02 3,7 C 85 % 1028,7 hPa 0,0 l/m 1,8 km/h (1 Bft) O-SO 103 0 min 0,000 mm 0,0 UV-I 0 W/m 1,4 C 3,7 C 4,0 km/h (1 Bft) 0,00 %
01.10.2015 03:07 3,7 C 85 % 1028,4 hPa 0,0 l/m 4,3 km/h (1 Bft) O 90 0 min 0,000 mm 0,0 UV-I 0 W/m 1,4 C 3,7 C 7,9 km/h (2 Bft) 0,00 %
01.10.2015 03:12 3,9 C 84 % 1028,6 hPa 0,0 l/m 2,9 km/h (1 Bft) S 172 0 min 0,000 mm 0,0 UV-I 0 W/m 1,4 C 3,9 C 7,9 km/h (2 Bft) 0,00 %
01.10.2015 03:17 4,0 C 84 % 1028,5 hPa 0,0 l/m 0,0 km/h (0 Bft) O 86 0 min 0,000 mm 0,0 UV-I 0 W/m 1,5 C 4,0 C 0,0 km/h (0 Bft) 0,00 %
01.10.2015 03:22 4,1 C 84 % 1028,5 hPa 0,0 l/m 0,0 km/h (0 Bft) O-NO 76 0 min 0,000 mm 0,0 UV-I 0 W/m 1,6 C 4,1 C 0,0 km/h (0 Bft) 0,00 %
01.10.2015 03:27 4,1 C 84 % 1028,5 hPa 0,0 l/m 1,4 km/h (1 Bft) O-NO 76 0 min 0,000 mm 0,0 UV-I 0 W/m 1,6 C 4,1 C 4,0 km/h (1 Bft) 0,00 %
01.10.2015 03:32 4,1 C 84 % 1028,5 hPa 0,0 l/m 5,4 km/h (1 Bft) O-SO 108 0 min 0,000 mm 0,0 UV-I 0 W/m 1,6 C 4,1 C 7,9 km/h (2 Bft) 0,00 %
01.10.2015 03:37 4,1 C 84 % 1028,2 hPa 0,0 l/m 1,4 km/h (1 Bft) O-SO 108 0 min 0,000 mm 0,0 UV-I 0 W/m 1,6 C 4,1 C 4,0 km/h (1 Bft) 0,00 %
01.10.2015 03:42 4,1 C 84 % 1028,4 hPa 0,0 l/m 3,2 km/h (1 Bft) O 100 0 min 0,000 mm 0,0 UV-I 0 W/m 1,6 C 4,1 C 4,0 km/h (1 Bft) 0,00 %
01.10.2015 03:47 4,0 C 84 % 1028,4 hPa 0,0 l/m 0,7 km/h (0 Bft) O-NO 75 0 min 0,000 mm 0,0 UV-I 0 W/m 1,5 C 4,0 C 4,0 km/h (1 Bft) 0,00 %
01.10.2015 03:52 4,0 C 84 % 1028,3 hPa 0,0 l/m 5,8 km/h (2 Bft) O-SO 111 0 min 0,000 mm 0,0 UV-I 0 W/m 1,5 C 4,0 C 7,9 km/h (2 Bft) 0,00 %
01.10.2015 03:57 4,1 C 84 % 1028,4 hPa 0,0 l/m 0,4 km/h (0 Bft) O-NO 69 0 min 0,000 mm 0,0 UV-I 0 W/m 1,6 C 4,1 C 4,0 km/h (1 Bft) 0,00 %
01.10.2015 04:02 4,1 C 83 % 1028,2 hPa 0,0 l/m 0,0 km/h (0 Bft) O-NO 65 0 min 0,000 mm 0,0 UV-I 0 W/m 1,5 C 4,1 C 0,0 km/h (0 Bft) 0,00 %
01.10.2015 04:07 4,1 C 83 % 1028,3 hPa 0,0 l/m 5,4 km/h (1 Bft) O-SO 104 0 min 0,000 mm 0,0 UV-I 0 W/m 1,5 C 4,1 C 11,9 km/h (2 Bft) 0,00 %
01.10.2015 04:12 4,0 C 85 % 1028,3 hPa 0,0 l/m 0,0 km/h (0 Bft) O-SO 106 0 min 0,000 mm 0,0 UV-I 0 W/m 1,7 C 4,0 C 0,0 km/h (0 Bft) 0,00 %
01.10.2015 04:17 3,9 C 85 % 1028,4 hPa 0,0 l/m 2,9 km/h (1 Bft) O-SO 114 0 min 0,000 mm 0,0 UV-I 0 W/m 1,6 C 3,9 C 4,0 km/h (1 Bft) 0,00 %
01.10.2015 04:22 3,9 C 85 % 1028,4 hPa 0,0 l/m 0,0 km/h (0 Bft) NO 51 0 min 0,000 mm 0,0 UV-I 0 W/m 1,6 C 3,9 C 0,0 km/h (0 Bft) 0,00 %
01.10.2015 04:27 3,9 C 83 % 1028,3 hPa 0,0 l/m 0,7 km/h (0 Bft) NO 45 0 min 0,000 mm 0,0 UV-I 0 W/m 1,3 C 3,9 C 4,0 km/h (1 Bft) 0,00 %
01.10.2015 04:32 4,0 C 83 % 1028,3 hPa 0,0 l/m 0,0 km/h (0 Bft) O-NO 75 0 min 0,000 mm 0,0 UV-I 0 W/m 1,4 C 4,0 C 0,0 km/h (0 Bft) 0,00 %
01.10.2015 04:37 4,2 C 82 % 1028,1 hPa 0,0 l/m 2,9 km/h (1 Bft) O-NO 66 0 min 0,000 mm 0,0 UV-I 0 W/m 1,4 C 4,2 C 4,0 km/h (1 Bft) 0,00 %
01.10.2015 04:42 4,3 C 82 % 1028,2 hPa 0,0 l/m 4,3 km/h (1 Bft) O-NO 59 0 min 0,000 mm 0,0 UV-I 0 W/m 1,5 C 4,3 C 7,9 km/h (2 Bft) 0,00 %
01.10.2015 04:47 4,3 C 82 % 1028,3 hPa 0,0 l/m 4,7 km/h (1 Bft) NO 56 0 min 0,000 mm 0,0 UV-I 0 W/m 1,5 C 4,3 C 7,9 km/h (2 Bft) 0,00 %
01.10.2015 04:52 4,3 C 82 % 1028,1 hPa 0,0 l/m 4,7 km/h (1 Bft) O-SO 113 0 min 0,000 mm 0,0 UV-I 0 W/m 1,5 C 4,3 C 7,9 km/h (2 Bft) 0,00 %
01.10.2015 04:57 4,2 C 82 % 1028,3 hPa 0,0 l/m 1,4 km/h (1 Bft) O 87 0 min 0,000 mm 0,0 UV-I 0 W/m 1,4 C 4,2 C 4,0 km/h (1 Bft) 0,00 %
01.10.2015 05:02 4,1 C 83 % 1028,2 hPa 0,0 l/m 0,4 km/h (0 Bft) O-NO 67 0 min 0,000 mm 0,0 UV-I 0 W/m 1,5 C 4,1 C 4,0 km/h (1 Bft) 0,00 %
01.10.2015 05:07 4,1 C 83 % 1028,2 hPa 0,0 l/m 2,9 km/h (1 Bft) O 80 0 min 0,000 mm 0,0 UV-I 0 W/m 1,5 C 4,1 C 7,9 km/h (2 Bft) 0,00 %
01.10.2015 05:12 4,1 C 83 % 1028,1 hPa 0,0 l/m 1,8 km/h (1 Bft) SO 137 0 min 0,000 mm 0,0 UV-I 0 W/m 1,5 C 4,1 C 4,0 km/h (1 Bft) 0,00 %
01.10.2015 05:17 4,1 C 83 % 1028,1 hPa 0,0 l/m 6,8 km/h (2 Bft) O 81 0 min 0,000 mm 0,0 UV-I 0 W/m 1,5 C 3,7 C 11,9 km/h (2 Bft) 0,00 %
01.10.2015 05:22 4,2 C 83 % 1028,1 hPa 0,0 l/m 10,4 km/h (2 Bft) O 99 0 min 0,000 mm 0,0 UV-I 0 W/m 1,6 C 0,9 C 11,9 km/h (2 Bft) 0,00 %
01.10.2015 05:27 4,2 C 83 % 1028,1 hPa 0,0 l/m 11,5 km/h (2 Bft) O-SO 114 0 min 0,000 mm 0,0 UV-I 0 W/m 1,6 C 0,2 C 15,8 km/h (3 Bft) 0,00 %
01.10.2015 05:32 4,2 C 83 % 1027,9 hPa 0,0 l/m 4,0 km/h (1 Bft) O 85 0 min 0,000 mm 0,0 UV-I 0 W/m 1,6 C 4,2 C 4,0 km/h (1 Bft) 0,00 %
01.10.2015 05:37 4,2 C 83 % 1027,8 hPa 0,0 l/m 3,2 km/h (1 Bft) O-NO 76 0 min 0,000 mm 0,0 UV-I 0 W/m 1,6 C 4,2 C 7,9 km/h (2 Bft) 0,00 %
01.10.2015 05:42 4,1 C 83 % 1027,9 hPa 0,0 l/m 8,3 km/h (2 Bft) O 100 0 min 0,000 mm 0,0 UV-I 0 W/m 1,5 C 2,4 C 11,9 km/h (2 Bft) 0,00 %
01.10.2015 05:47 4,1 C 83 % 1027,7 hPa 0,0 l/m 2,9 km/h (1 Bft) O-NO 67 0 min 0,000 mm 0,0 UV-I 0 W/m 1,5 C 4,1 C 4,0 km/h (1 Bft) 0,00 %
01.10.2015 05:52 4,2 C 83 % 1027,8 hPa 0,0 l/m 7,9 km/h (2 Bft) O 97 0 min 0,000 mm 0,0 UV-I 0 W/m 1,6 C 2,8 C 11,9 km/h (2 Bft) 0,00 %
01.10.2015 05:57 4,3 C 82 % 1027,6 hPa 0,0 l/m 7,2 km/h (2 Bft) O 98 0 min 0,000 mm 0,0 UV-I 0 W/m 1,5 C 3,6 C 11,9 km/h (2 Bft) 0,00 %
01.10.2015 06:02 4,4 C 82 % 1027,6 hPa 0,0 l/m 0,4 km/h (0 Bft) NO 48 0 min 0,000 mm 0,0 UV-I 0 W/m 1,6 C 4,4 C 4,0 km/h (1 Bft) 0,00 %
01.10.2015 06:07 4,4 C 82 % 1027,5 hPa 0,0 l/m 1,8 km/h (1 Bft) O 91 0 min 0,000 mm 0,0 UV-I 0 W/m 1,6 C 4,4 C 7,9 km/h (2 Bft) 0,00 %
01.10.2015 06:12 4,5 C 81 % 1027,8 hPa 0,0 l/m 5,4 km/h (1 Bft) S 169 0 min 0,000 mm 0,0 UV-I 0 W/m 1,5 C 4,5 C 7,9 km/h (2 Bft) 0,00 %
01.10.2015 06:17 4,6 C 81 % 1027,8 hPa 0,0 l/m 7,9 km/h (2 Bft) O 84 0 min 0,000 mm 0,0 UV-I 0 W/m 1,6 C 3,3 C 24,1 km/h (4 Bft) 0,00 %
01.10.2015 06:22 4,7 C 81 % 1027,5 hPa 0,0 l/m 0,4 km/h (0 Bft) N-NO 23 0 min 0,000 mm 0,0 UV-I 0 W/m 1,7 C 4,7 C 4,0 km/h (1 Bft) 0,00 %
01.10.2015 06:27 4,7 C 81 % 1027,6 hPa 0,0 l/m 7,9 km/h (2 Bft) NO 54 0 min 0,000 mm 0,0 UV-I 0 W/m 1,7 C 3,4 C 11,9 km/h (2 Bft) 0,00 %
01.10.2015 06:32 4,8 C 80 % 1027,7 hPa 0,0 l/m 13,3 km/h (3 Bft) O-SO 119 0 min 0,000 mm 0,0 UV-I 0 W/m 1,6 C -0,2 C 15,8 km/h (3 Bft) 0,00 %
01.10.2015 06:37 4,8 C 80 % 1027,7 hPa 0,0 l/m 7,9 km/h (2 Bft) O-SO 111 0 min 0,000 mm 0,0 UV-I 0 W/m 1,6 C 3,5 C 11,9 km/h (2 Bft) 0,00 %
01.10.2015 06:42 4,8 C 80 % 1027,5 hPa 0,0 l/m 9,7 km/h (2 Bft) O-SO 104 0 min 0,000 mm 0,0 UV-I 0 W/m 1,6 C 2,1 C 15,8 km/h (3 Bft) 0,00 %
01.10.2015 06:47 4,8 C 80 % 1027,7 hPa 0,0 l/m 6,8 km/h (2 Bft) O-SO 104 0 min 0,000 mm 0,0 UV-I 0 W/m 1,6 C 4,5 C 11,9 km/h (2 Bft) 0,00 %
01.10.2015 06:52 4,8 C 80 % 1027,8 hPa 0,0 l/m 13,3 km/h (3 Bft) O 88 0 min 0,000 mm 0,0 UV-I 0 W/m 1,6 C -0,2 C 19,8 km/h (3 Bft) 0,00 %
01.10.2015 06:57 4,8 C 80 % 1027,8 hPa 0,0 l/m 4,7 km/h (1 Bft) O 82 0 min 0,000 mm 0,0 UV-I 0 W/m 1,6 C 4,8 C 7,9 km/h (2 Bft) 0,00 %
01.10.2015 07:02 4,8 C 80 % 1027,8 hPa 0,0 l/m 6,8 km/h (2 Bft) O 92 0 min 0,000 mm 0,0 UV-I 0 W/m 1,6 C 4,5 C 7,9 km/h (2 Bft) 0,00 %
01.10.2015 07:07 4,9 C 79 % 1027,7 hPa 0,0 l/m 5,4 km/h (1 Bft) O 99 0 min 0,000 mm 0,0 UV-I 5 W/m 1,6 C 4,9 C 7,9 km/h (2 Bft) 0,00 %
01.10.2015 07:12 5,0 C 79 % 1027,7 hPa 0,0 l/m 14,8 km/h (3 Bft) O-SO 107 0 min 0,000 mm 0,0 UV-I 10 W/m 1,7 C -0,8 C 24,1 km/h (4 Bft) 0,00 %
01.10.2015 07:17 5,0 C 79 % 1027,8 hPa 0,0 l/m 11,9 km/h (2 Bft) O 95 5 min 0,000 mm 0,0 UV-I 18 W/m 1,7 C 0,8 C 24,1 km/h (4 Bft) 0,00 %
01.10.2015 07:22 5,0 C 79 % 1027,7 hPa 0,0 l/m 9,0 km/h (2 Bft) O 100 5 min 0,000 mm 0,0 UV-I 84 W/m 1,7 C 2,8 C 11,9 km/h (2 Bft) 0,00 %
01.10.2015 07:27 5,0 C 78 % 1027,7 hPa 0,0 l/m 5,4 km/h (1 Bft) O 94 5 min 0,000 mm 0,0 UV-I 89 W/m 1,5 C 5,0 C 7,9 km/h (2 Bft) 0,00 %
01.10.2015 07:32 5,1 C 77 % 1027,6 hPa 0,0 l/m 9,7 km/h (2 Bft) O-NO 78 5 min 0,000 mm 0,0 UV-I 95 W/m 1,4 C 2,4 C 15,8 km/h (3 Bft) 0,00 %
01.10.2015 07:37 5,2 C 77 % 1027,7 hPa 0,0 l/m 13,0 km/h (3 Bft) O-SO 104 5 min 0,000 mm 0,0 UV-I 102 W/m 1,5 C 0,4 C 15,8 km/h (3 Bft) 0,00 %
01.10.2015 07:42 5,3 C 76 % 1027,6 hPa 0,0 l/m 10,4 km/h (2 Bft) O-NO 59 5 min 0,000 mm 0,0 UV-I 108 W/m 1,4 C 2,1 C 15,8 km/h (3 Bft) 0,00 %
01.10.2015 07:47 5,5 C 75 % 1027,9 hPa 0,0 l/m 9,7 km/h (2 Bft) O-NO 59 5 min 0,000 mm 0,0 UV-I 113 W/m 1,4 C 2,8 C 15,8 km/h (3 Bft) 0,00 %
01.10.2015 07:52 5,7 C 74 % 1027,7 hPa 0,0 l/m 4,3 km/h (1 Bft) O 79 5 min 0,000 mm 0,0 UV-I 118 W/m 1,4 C 5,7 C 7,9 km/h (2 Bft) 0,00 %
01.10.2015 07:57 5,8 C 73 % 1027,7 hPa 0,0 l/m 12,2 km/h (2 Bft) O 88 5 min 0,000 mm 0,0 UV-I 123 W/m 1,3 C 1,6 C 19,8 km/h (3 Bft) 0,00 %
01.10.2015 08:02 5,9 C 72 % 1027,5 hPa 0,0 l/m 8,3 km/h (2 Bft) NO 39 5 min 0,000 mm 0,0 UV-I 126 W/m 1,2 C 4,3 C 11,9 km/h (2 Bft) 0,00 %
01.10.2015 08:07 6,1 C 72 % 1027,5 hPa 0,0 l/m 0,4 km/h (0 Bft) NO 56 5 min 0,000 mm 0,0 UV-I 130 W/m 1,4 C 6,1 C 4,0 km/h (1 Bft) 0,00 %
01.10.2015 08:12 6,2 C 71 % 1027,6 hPa 0,0 l/m 11,9 km/h (2 Bft) O-NO 78 5 min 0,000 mm 1,0 UV-I 133 W/m 1,3 C 2,2 C 15,8 km/h (3 Bft) 0,00 %
01.10.2015 08:17 6,3 C 71 % 1027,4 hPa 0,0 l/m 11,5 km/h (2 Bft) O-SO 116 5 min 0,000 mm 1,0 UV-I 136 W/m 1,4 C 2,6 C 19,8 km/h (3 Bft) 0,00 %
01.10.2015 08:22 6,5 C 70 % 1027,5 hPa 0,0 l/m 11,5 km/h (2 Bft) NO 35 5 min 0,000 mm 1,0 UV-I 139 W/m 1,4 C 2,8 C 15,8 km/h (3 Bft) 0,00 %
01.10.2015 08:27 6,7 C 69 % 1027,5 hPa 0,0 l/m 7,2 km/h (2 Bft) O-SO 111 5 min 0,000 mm 1,0 UV-I 141 W/m 1,4 C 6,0 C 15,8 km/h (3 Bft) 0,00 %
01.10.2015 08:32 6,9 C 69 % 1027,5 hPa 0,0 l/m 9,7 km/h (2 Bft) O 83 5 min 0,000 mm 1,0 UV-I 143 W/m 1,6 C 4,4 C 15,8 km/h (3 Bft) 0,00 %
01.10.2015 08:37 7,0 C 67 % 1027,6 hPa 0,0 l/m 6,5 km/h (2 Bft) O-NO 69 5 min 0,000 mm 1,0 UV-I 145 W/m 1,3 C 6,9 C 7,9 km/h (2 Bft) 0,00 %
01.10.2015 08:42 7,2 C 66 % 1027,6 hPa 0,0 l/m 11,5 km/h (2 Bft) O 87 5 min 0,000 mm 1,0 UV-I 146 W/m 1,3 C 3,6 C 15,8 km/h (3 Bft) 0,00 %
01.10.2015 08:47 7,5 C 66 % 1027,4 hPa 0,0 l/m 12,2 km/h (2 Bft) O 99 0 min 0,000 mm 1,0 UV-I 147 W/m 1,6 C 3,5 C 15,8 km/h (3 Bft) 0,00 %
01.10.2015 08:52 7,6 C 64 % 1027,6 hPa 0,0 l/m 13,0 km/h (3 Bft) O-NO 78 0 min 0,000 mm 1,0 UV-I 149 W/m 1,2 C 3,2 C 19,8 km/h (3 Bft) 0,00 %
01.10.2015 08:57 7,8 C 64 % 1027,5 hPa 0,0 l/m 6,8 km/h (2 Bft) O-NO 60 0 min 0,000 mm 1,0 UV-I 149 W/m 1,4 C 7,5 C 7,9 km/h (2 Bft) 0,00 %
01.10.2015 09:02 7,8 C 64 % 1027,6 hPa 0,0 l/m 10,4 km/h (2 Bft) O-NO 75 0 min 0,000 mm 1,0 UV-I 152 W/m 1,4 C 4,9 C 15,8 km/h (3 Bft) 0,00 %
01.10.2015 09:07 7,9 C 62 % 1027,5 hPa 0,0 l/m 4,3 km/h (1 Bft) O-NO 63 0 min 0,000 mm 1,0 UV-I 154 W/m 1,1 C 7,9 C 7,9 km/h (2 Bft) 0,00 %
01.10.2015 09:12 8,2 C 61 % 1027,6 hPa 0,0 l/m 13,3 km/h (3 Bft) O 93 0 min 0,000 mm 1,0 UV-I 156 W/m 1,1 C 3,8 C 28,1 km/h (4 Bft) 0,00 %
01.10.2015 09:17 8,5 C 59 % 1027,5 hPa 0,0 l/m 10,4 km/h (2 Bft) O-NO 78 0 min 0,000 mm 1,0 UV-I 158 W/m 1,0 C 5,7 C 19,8 km/h (3 Bft) 0,00 %
01.10.2015 09:22 8,8 C 58 % 1027,5 hPa 0,0 l/m 5,4 km/h (1 Bft) O-NO 75 0 min 0,000 mm 1,0 UV-I 159 W/m 1,0 C 8,8 C 11,9 km/h (2 Bft) 0,00 %
01.10.2015 09:27 9,0 C 57 % 1027,5 hPa 0,0 l/m 5,8 km/h (2 Bft) O-SO 109 0 min 0,000 mm 1,0 UV-I 160 W/m 0,9 C 9,0 C 7,9 km/h (2 Bft) 0,00 %
01.10.2015 09:32 9,1 C 57 % 1027,5 hPa 0,0 l/m 9,7 km/h (2 Bft) O 90 0 min 0,000 mm 1,0 UV-I 162 W/m 1,0 C 6,8 C 19,8 km/h (3 Bft) 0,00 %
01.10.2015 09:37 9,2 C 56 % 1027,5 hPa 0,0 l/m 7,9 km/h (2 Bft) O 81 0 min 0,000 mm 1,0 UV-I 165 W/m 0,9 C 8,1 C 11,9 km/h (2 Bft) 0,00 %
01.10.2015 09:42 9,3 C 56 % 1027,4 hPa 0,0 l/m 9,7 km/h (2 Bft) O 90 0 min 0,000 mm 1,0 UV-I 170 W/m 1,0 C 7,0 C 11,9 km/h (2 Bft) 0,00 %
01.10.2015 09:47 9,5 C 55 % 1027,6 hPa 0,0 l/m 6,5 km/h (2 Bft) O-SO 120 0 min 0,000 mm 1,0 UV-I 175 W/m 0,9 C 9,5 C 11,9 km/h (2 Bft) 0,00 %
01.10.2015 09:52 9,6 C 56 % 1027,6 hPa 0,0 l/m 9,7 km/h (2 Bft) O 99 0 min 0,000 mm 1,0 UV-I 182 W/m 1,3 C 7,3 C 15,8 km/h (3 Bft) 0,00 %
01.10.2015 09:57 9,7 C 54 % 1027,5 hPa 0,0 l/m 13,3 km/h (3 Bft) O 92 0 min 0,000 mm 1,0 UV-I 189 W/m 0,9 C 5,5 C 19,8 km/h (3 Bft) 0,00 %
01.10.2015 10:02 10,0 C 54 % 1027,3 hPa 0,0 l/m 9,0 km/h (2 Bft) O 88 0 min 0,000 mm 1,0 UV-I 197 W/m 1,1 C 8,2 C 15,8 km/h (3 Bft) 0,00 %
01.10.2015 10:07 10,1 C 52 % 1027,5 hPa 0,0 l/m 9,0 km/h (2 Bft) NO 55 0 min 0,000 mm 1,0 UV-I 216 W/m 0,7 C 8,3 C 19,8 km/h (3 Bft) 0,00 %
01.10.2015 10:12 10,4 C 51 % 1027,4 hPa 0,0 l/m 3,2 km/h (1 Bft) O 92 0 min 0,000 mm 1,0 UV-I 214 W/m 0,7 C 10,4 C 7,9 km/h (2 Bft) 0,00 %
01.10.2015 10:17 10,6 C 51 % 1027,3 hPa 0,0 l/m 13,3 km/h (3 Bft) O 98 0 min 0,000 mm 1,0 UV-I 224 W/m 0,9 C 6,6 C 19,8 km/h (3 Bft) 0,00 %
01.10.2015 10:22 10,8 C 51 % 1027,4 hPa 0,0 l/m 14,4 km/h (3 Bft) O-NO 68 0 min 0,000 mm 1,0 UV-I 233 W/m 1,1 C 6,4 C 19,8 km/h (3 Bft) 0,00 %
01.10.2015 10:27 10,9 C 50 % 1027,4 hPa 0,0 l/m 9,7 km/h (2 Bft) O 81 0 min 0,000 mm 1,0 UV-I 244 W/m 0,9 C 8,8 C 15,8 km/h (3 Bft) 0,00 %
01.10.2015 10:32 11,0 C 51 % 1027,2 hPa 0,0 l/m 9,4 km/h (2 Bft) O 83 0 min 0,000 mm 1,0 UV-I 254 W/m 1,3 C 9,0 C 11,9 km/h (2 Bft) 0,00 %
01.10.2015 10:37 11,2 C 49 % 1027,2 hPa 0,0 l/m 4,3 km/h (1 Bft) O-NO 78 0 min 0,000 mm 1,0 UV-I 266 W/m 0,9 C 11,2 C 15,8 km/h (3 Bft) 0,00 %
01.10.2015 10:42 11,6 C 49 % 1027,1 hPa 0,0 l/m 19,1 km/h (3 Bft) O-NO 76 0 min 0,000 mm 1,0 UV-I 250 W/m 1,3 C 5,6 C 24,1 km/h (4 Bft) 0,00 %
01.10.2015 10:47 11,6 C 50 % 1027,1 hPa 0,0 l/m 6,8 km/h (2 Bft) O 83 0 min 0,000 mm 2,0 UV-I 230 W/m 1,5 C 11,3 C 7,9 km/h (2 Bft) 0,00 %
01.10.2015 10:52 11,6 C 49 % 1027,1 hPa 0,0 l/m 9,4 km/h (2 Bft) O-NO 65 0 min 0,000 mm 2,0 UV-I 242 W/m 1,3 C 9,7 C 15,8 km/h (3 Bft) 0,00 %
01.10.2015 10:57 11,7 C 49 % 1027,2 hPa 0,0 l/m 6,5 km/h (2 Bft) O-NO 76 0 min 0,000 mm 2,0 UV-I 255 W/m 1,3 C 11,7 C 11,9 km/h (2 Bft) 0,00 %
01.10.2015 11:02 11,8 C 49 % 1027,5 hPa 0,0 l/m 20,5 km/h (4 Bft) O-SO 105 0 min 0,000 mm 2,0 UV-I 268 W/m 1,4 C 5,5 C 32,0 km/h (5 Bft) 0,00 %
01.10.2015 11:07 11,8 C 49 % 1027,2 hPa 0,0 l/m 3,2 km/h (1 Bft) NO 44 0 min 0,000 mm 2,0 UV-I 282 W/m 1,4 C 11,8 C 7,9 km/h (2 Bft) 0,00 %
01.10.2015 11:12 11,9 C 48 % 1027,3 hPa 0,0 l/m 5,4 km/h (1 Bft) O-NO 58 0 min 0,000 mm 2,0 UV-I 299 W/m 1,2 C 11,9 C 7,9 km/h (2 Bft) 0,00 %
01.10.2015 11:17 12,2 C 48 % 1027,2 hPa 0,0 l/m 9,0 km/h (2 Bft) SO 127 0 min 0,000 mm 2,0 UV-I 312 W/m 1,5 C 10,6 C 11,9 km/h (2 Bft) 0,00 %
01.10.2015 11:22 12,2 C 48 % 1027,2 hPa 0,0 l/m 13,3 km/h (3 Bft) O 97 5 min 0,000 mm 2,0 UV-I 328 W/m 1,5 C 8,5 C 15,8 km/h (3 Bft) 0,00 %
01.10.2015 11:27 12,3 C 48 % 1027,1 hPa 0,0 l/m 4,7 km/h (1 Bft) O 97 5 min 0,000 mm 2,0 UV-I 344 W/m 1,6 C 12,3 C 7,9 km/h (2 Bft) 0,00 %
01.10.2015 11:32 12,5 C 48 % 1027,0 hPa 0,0 l/m 0,4 km/h (0 Bft) N-NO 33 5 min 0,000 mm 2,0 UV-I 360 W/m 1,8 C 12,5 C 4,0 km/h (1 Bft) 0,00 %
01.10.2015 11:37 12,7 C 47 % 1026,8 hPa 0,0 l/m 12,2 km/h (2 Bft) O 100 5 min 0,000 mm 2,0 UV-I 376 W/m 1,7 C 9,5 C 15,8 km/h (3 Bft) 0,00 %
01.10.2015 11:42 12,8 C 47 % 1026,8 hPa 0,0 l/m 4,7 km/h (1 Bft) O 89 5 min 0,000 mm 2,0 UV-I 394 W/m 1,8 C 12,8 C 7,9 km/h (2 Bft) 0,00 %
01.10.2015 11:47 12,8 C 46 % 1026,8 hPa 0,0 l/m 9,4 km/h (2 Bft) O 98 5 min 0,000 mm 2,0 UV-I 408 W/m 1,5 C 11,0 C 15,8 km/h (3 Bft) 0,00 %
01.10.2015 11:52 12,8 C 46 % 1026,7 hPa 0,0 l/m 0,7 km/h (0 Bft) O 87 5 min 0,000 mm 2,0 UV-I 424 W/m 1,5 C 12,8 C 4,0 km/h (1 Bft) 0,00 %
01.10.2015 11:57 12,8 C 46 % 1026,5 hPa 0,0 l/m 16,6 km/h (3 Bft) O-SO 112 5 min 0,000 mm 2,0 UV-I 386 W/m 1,5 C 8,0 C 24,1 km/h (4 Bft) 0,00 %
01.10.2015 12:02 13,1 C 44 % 1026,7 hPa 0,0 l/m 4,3 km/h (1 Bft) NO 51 5 min 0,000 mm 2,0 UV-I 463 W/m 1,1 C 13,1 C 7,9 km/h (2 Bft) 0,00 %
01.10.2015 12:07 13,3 C 44 % 1026,8 hPa 0,0 l/m 11,9 km/h (2 Bft) O 84 5 min 0,000 mm 2,0 UV-I 486 W/m 1,3 C 10,4 C 15,8 km/h (3 Bft) 0,00 %
01.10.2015 12:12 13,4 C 45 % 1026,5 hPa 0,0 l/m 4,0 km/h (1 Bft) O 94 5 min 0,000 mm 2,0 UV-I 501 W/m 1,7 C 13,4 C 7,9 km/h (2 Bft) 0,00 %
01.10.2015 12:17 13,6 C 44 % 1026,4 hPa 0,0 l/m 14,8 km/h (3 Bft) O 88 5 min 0,000 mm 2,0 UV-I 522 W/m 1,6 C 9,6 C 19,8 km/h (3 Bft) 0,00 %
01.10.2015 12:22 13,8 C 44 % 1026,6 hPa 0,0 l/m 7,9 km/h (2 Bft) O 87 5 min 0,000 mm 2,0 UV-I 536 W/m 1,8 C 12,9 C 11,9 km/h (2 Bft) 0,00 %
01.10.2015 12:27 13,8 C 44 % 1026,5 hPa 0,0 l/m 11,9 km/h (2 Bft) O-NO 71 5 min 0,000 mm 2,0 UV-I 552 W/m 1,8 C 10,9 C 24,1 km/h (4 Bft) 0,00 %
01.10.2015 12:32 13,8 C 45 % 1026,6 hPa 0,0 l/m 2,2 km/h (1 Bft) NO 55 5 min 0,000 mm 2,0 UV-I 565 W/m 2,1 C 13,8 C 4,0 km/h (1 Bft) 0,00 %
01.10.2015 12:37 13,9 C 44 % 1026,5 hPa 0,0 l/m 14,4 km/h (3 Bft) O-NO 64 5 min 0,000 mm 2,0 UV-I 580 W/m 1,9 C 10,1 C 19,8 km/h (3 Bft) 0,00 %
01.10.2015 12:42 13,9 C 43 % 1026,5 hPa 0,0 l/m 0,4 km/h (0 Bft) O 99 5 min 0,000 mm 2,0 UV-I 594 W/m 1,5 C 13,9 C 4,0 km/h (1 Bft) 0,00 %
01.10.2015 12:47 14,1 C 43 % 1026,6 hPa 0,0 l/m 11,5 km/h (2 Bft) O-SO 108 5 min 0,000 mm 2,0 UV-I 608 W/m 1,7 C 11,4 C 19,8 km/h (3 Bft) 0,00 %
01.10.2015 12:52 14,2 C 43 % 1026,4 hPa 0,0 l/m 11,5 km/h (2 Bft) O 88 5 min 0,000 mm 2,0 UV-I 614 W/m 1,8 C 11,6 C 15,8 km/h (3 Bft) 0,00 %
01.10.2015 12:57 14,1 C 43 % 1026,4 hPa 0,0 l/m 16,9 km/h (3 Bft) O-NO 64 5 min 0,000 mm 2,0 UV-I 569 W/m 1,7 C 9,5 C 24,1 km/h (4 Bft) 0,00 %
01.10.2015 13:02 14,1 C 43 % 1026,2 hPa 0,0 l/m 8,3 km/h (2 Bft) O 83 5 min 0,000 mm 2,0 UV-I 499 W/m 1,7 C 13,0 C 11,9 km/h (2 Bft) 0,00 %
01.10.2015 13:07 14,1 C 43 % 1026,3 hPa 0,0 l/m 1,8 km/h (1 Bft) NO 51 5 min 0,000 mm 2,0 UV-I 640 W/m 1,7 C 14,1 C 4,0 km/h (1 Bft) 0,00 %
01.10.2015 13:12 14,2 C 44 % 1026,2 hPa 0,0 l/m 13,3 km/h (3 Bft) O 86 5 min 0,000 mm 2,0 UV-I 645 W/m 2,1 C 10,8 C 15,8 km/h (3 Bft) 0,00 %
01.10.2015 13:17 14,2 C 44 % 1026,2 hPa 0,0 l/m 2,2 km/h (1 Bft) N-NO 33 5 min 0,000 mm 2,0 UV-I 647 W/m 2,1 C 14,2 C 4,0 km/h (1 Bft) 0,00 %
01.10.2015 13:22 14,3 C 44 % 1026,3 hPa 0,0 l/m 18,0 km/h (3 Bft) O 90 5 min 0,000 mm 2,0 UV-I 488 W/m 2,2 C 9,4 C 19,8 km/h (3 Bft) 0,00 %
01.10.2015 13:27 14,4 C 43 % 1026,3 hPa 0,0 l/m 19,1 km/h (3 Bft) O-NO 70 5 min 0,000 mm 2,0 UV-I 506 W/m 2,0 C 9,2 C 28,1 km/h (4 Bft) 0,00 %
01.10.2015 13:32 14,3 C 43 % 1026,1 hPa 0,0 l/m 20,5 km/h (4 Bft) O 84 5 min 0,000 mm 2,0 UV-I 419 W/m 1,9 C 8,7 C 24,1 km/h (4 Bft) 0,00 %
01.10.2015 13:37 14,4 C 43 % 1026,2 hPa 0,0 l/m 19,1 km/h (3 Bft) O 101 5 min 0,000 mm 2,0 UV-I 668 W/m 2,0 C 9,2 C 24,1 km/h (4 Bft) 0,00 %
01.10.2015 13:42 14,4 C 43 % 1026,4 hPa 0,0 l/m 9,7 km/h (2 Bft) O-NO 61 5 min 0,000 mm 1,0 UV-I 672 W/m 2,0 C 12,6 C 11,9 km/h (2 Bft) 0,00 %
01.10.2015 13:47 14,4 C 43 % 1026,1 hPa 0,0 l/m 14,4 km/h (3 Bft) O-SO 111 5 min 0,000 mm 1,0 UV-I 676 W/m 2,0 C 10,7 C 19,8 km/h (3 Bft) 0,00 %
01.10.2015 13:52 14,5 C 42 % 1026,1 hPa 0,0 l/m 12,2 km/h (2 Bft) O 84 5 min 0,000 mm 1,0 UV-I 688 W/m 1,7 C 11,6 C 19,8 km/h (3 Bft) 0,00 %
01.10.2015 13:57 14,7 C 43 % 1026,2 hPa 0,0 l/m 16,6 km/h (3 Bft) O-NO 60 5 min 0,000 mm 1,0 UV-I 691 W/m 2,3 C 10,3 C 32,0 km/h (5 Bft) 0,00 %
01.10.2015 14:02 14,7 C 42 % 1026,0 hPa 0,0 l/m 19,8 km/h (3 Bft) O-NO 66 5 min 0,000 mm 1,0 UV-I 693 W/m 1,9 C 9,4 C 24,1 km/h (4 Bft) 0,00 %
01.10.2015 14:07 14,8 C 43 % 1025,9 hPa 0,0 l/m 20,9 km/h (4 Bft) O-SO 107 5 min 0,000 mm 1,0 UV-I 697 W/m 2,3 C 9,3 C 28,1 km/h (4 Bft) 0,00 %
01.10.2015 14:12 15,1 C 42 % 1025,8 hPa 0,0 l/m 13,0 km/h (3 Bft) O-NO 78 5 min 0,000 mm 1,0 UV-I 706 W/m 2,3 C 12,0 C 15,8 km/h (3 Bft) 0,00 %
01.10.2015 14:17 15,1 C 43 % 1026,0 hPa 0,0 l/m 15,5 km/h (3 Bft) O 98 5 min 0,000 mm 1,0 UV-I 706 W/m 2,6 C 11,2 C 24,1 km/h (4 Bft) 0,00 %
01.10.2015 14:22 14,9 C 43 % 1026,0 hPa 0,0 l/m 16,6 km/h (3 Bft) SO 128 5 min 0,000 mm 1,0 UV-I 708 W/m 2,4 C 10,6 C 24,1 km/h (4 Bft) 0,00 %
01.10.2015 14:27 14,8 C 43 % 1025,9 hPa 0,0 l/m 9,7 km/h (2 Bft) O 85 5 min 0,000 mm 1,0 UV-I 709 W/m 2,3 C 13,0 C 19,8 km/h (3 Bft) 0,00 %
01.10.2015 14:32 14,9 C 43 % 1025,8 hPa 0,0 l/m 6,5 km/h (2 Bft) O 93 5 min 0,000 mm 1,0 UV-I 708 W/m 2,4 C 14,9 C 7,9 km/h (2 Bft) 0,00 %
01.10.2015 14:37 15,0 C 43 % 1025,8 hPa 0,0 l/m 4,0 km/h (1 Bft) O-SO 107 5 min 0,000 mm 1,0 UV-I 712 W/m 2,5 C 15,0 C 11,9 km/h (2 Bft) 0,00 %
01.10.2015 14:42 15,0 C 43 % 1025,9 hPa 0,0 l/m 15,5 km/h (3 Bft) O 96 5 min 0,000 mm 1,0 UV-I 713 W/m 2,5 C 11,0 C 19,8 km/h (3 Bft) 0,00 %
01.10.2015 14:47 15,0 C 43 % 1025,8 hPa 0,0 l/m 14,4 km/h (3 Bft) O-SO 123 5 min 0,000 mm 1,0 UV-I 717 W/m 2,5 C 11,4 C 19,8 km/h (3 Bft) 0,00 %
01.10.2015 14:52 15,0 C 43 % 1025,9 hPa 0,0 l/m 4,3 km/h (1 Bft) NO 53 5 min 0,000 mm 1,0 UV-I 716 W/m 2,5 C 15,0 C 7,9 km/h (2 Bft) 0,00 %
01.10.2015 14:57 15,1 C 43 % 1025,8 hPa 0,0 l/m 9,0 km/h (2 Bft) O-NO 61 5 min 0,000 mm 1,0 UV-I 709 W/m 2,6 C 13,7 C 11,9 km/h (2 Bft) 0,00 %
01.10.2015 15:02 15,1 C 43 % 1025,7 hPa 0,0 l/m 15,8 km/h (3 Bft) O 81 5 min 0,000 mm 1,0 UV-I 708 W/m 2,6 C 11,1 C 19,8 km/h (3 Bft) 0,00 %
01.10.2015 15:12 14,9 C 45 % 1025,7 hPa 0,0 l/m 21,6 km/h (4 Bft) O-NO 62 10 min 0,000 mm 1,0 UV-I 699 W/m 3,1 C 9,2 C 28,1 km/h (4 Bft) 0,00 %
01.10.2015 15:17 14,8 C 44 % 1025,7 hPa 0,0 l/m 8,3 km/h (2 Bft) O 82 5 min 0,000 mm 1,0 UV-I 695 W/m 2,7 C 13,7 C 11,9 km/h (2 Bft) 0,00 %
01.10.2015 15:22 15,0 C 43 % 1025,7 hPa 0,0 l/m 22,0 km/h (4 Bft) O 94 5 min 0,000 mm 1,0 UV-I 695 W/m 2,5 C 9,3 C 28,1 km/h (4 Bft) 0,00 %
01.10.2015 15:27 15,1 C 43 % 1025,8 hPa 0,0 l/m 14,0 km/h (3 Bft) O-NO 67 5 min 0,000 mm 1,0 UV-I 693 W/m 2,6 C 11,6 C 19,8 km/h (3 Bft) 0,00 %
01.10.2015 15:32 15,0 C 43 % 1025,5 hPa 0,0 l/m 14,0 km/h (3 Bft) O-SO 115 5 min 0,000 mm 1,0 UV-I 687 W/m 2,5 C 11,5 C 24,1 km/h (4 Bft) 0,00 %
01.10.2015 15:37 14,9 C 44 % 1025,5 hPa 0,0 l/m 8,3 km/h (2 Bft) O-NO 61 5 min 0,000 mm 1,0 UV-I 679 W/m 2,8 C 13,8 C 15,8 km/h (3 Bft) 0,00 %
01.10.2015 15:42 14,9 C 44 % 1025,5 hPa 0,0 l/m 13,0 km/h (3 Bft) O-SO 105 5 min 0,000 mm 1,0 UV-I 674 W/m 2,8 C 11,8 C 15,8 km/h (3 Bft) 0,00 %
01.10.2015 15:47 15,0 C 43 % 1025,5 hPa 0,0 l/m 17,3 km/h (3 Bft) O-SO 115 5 min 0,000 mm 1,0 UV-I 672 W/m 2,5 C 10,5 C 24,1 km/h (4 Bft) 0,00 %
01.10.2015 15:52 15,2 C 43 % 1025,3 hPa 0,0 l/m 11,5 km/h (2 Bft) NO 38 5 min 0,000 mm 1,0 UV-I 666 W/m 2,7 C 12,7 C 15,8 km/h (3 Bft) 0,00 %
01.10.2015 15:57 15,1 C 44 % 1025,4 hPa 0,0 l/m 20,5 km/h (4 Bft) O 92 5 min 0,000 mm 1,0 UV-I 663 W/m 2,9 C 9,8 C 32,0 km/h (5 Bft) 0,00 %
01.10.2015 16:02 15,1 C 42 % 1025,3 hPa 0,0 l/m 18,0 km/h (3 Bft) SO 124 5 min 0,000 mm 1,0 UV-I 655 W/m 2,3 C 10,4 C 28,1 km/h (4 Bft) 0,00 %
01.10.2015 16:07 15,0 C 44 % 1025,3 hPa 0,0 l/m 9,4 km/h (2 Bft) O-NO 66 5 min 0,000 mm 1,0 UV-I 645 W/m 2,9 C 13,4 C 15,8 km/h (3 Bft) 0,00 %
01.10.2015 16:12 14,9 C 44 % 1025,5 hPa 0,0 l/m 8,3 km/h (2 Bft) O-NO 63 5 min 0,000 mm 1,0 UV-I 632 W/m 2,8 C 13,8 C 15,8 km/h (3 Bft) 0,00 %
01.10.2015 16:17 15,0 C 43 % 1025,4 hPa 0,0 l/m 16,6 km/h (3 Bft) O 99 5 min 0,000 mm 1,0 UV-I 625 W/m 2,5 C 10,7 C 24,1 km/h (4 Bft) 0,00 %
01.10.2015 16:22 15,0 C 44 % 1025,4 hPa 0,0 l/m 15,5 km/h (3 Bft) O-SO 107 5 min 0,000 mm 1,0 UV-I 617 W/m 2,9 C 11,0 C 24,1 km/h (4 Bft) 0,00 %
01.10.2015 16:27 14,9 C 45 % 1025,3 hPa 0,0 l/m 8,3 km/h (2 Bft) O 80 5 min 0,000 mm 1,0 UV-I 607 W/m 3,1 C 13,8 C 15,8 km/h (3 Bft) 0,00 %
01.10.2015 16:32 14,9 C 45 % 1025,1 hPa 0,0 l/m 26,6 km/h (4 Bft) O 93 5 min 0,000 mm 1,0 UV-I 596 W/m 3,1 C 8,2 C 36,0 km/h (5 Bft) 0,00 %
01.10.2015 16:37 14,8 C 45 % 1025,2 hPa 0,0 l/m 9,4 km/h (2 Bft) SO 128 5 min 0,000 mm 1,0 UV-I 587 W/m 3,0 C 13,2 C 15,8 km/h (3 Bft) 0,00 %
01.10.2015 16:42 14,7 C 45 % 1025,3 hPa 0,0 l/m 14,0 km/h (3 Bft) O 84 5 min 0,000 mm 1,0 UV-I 577 W/m 2,9 C 11,2 C 19,8 km/h (3 Bft) 0,00 %
01.10.2015 16:47 14,7 C 45 % 1025,1 hPa 0,0 l/m 16,6 km/h (3 Bft) O 96 5 min 0,000 mm 1,0 UV-I 569 W/m 2,9 C 10,3 C 19,8 km/h (3 Bft) 0,00 %
01.10.2015 16:52 14,7 C 45 % 1025,2 hPa 0,0 l/m 19,8 km/h (3 Bft) O 95 5 min 0,000 mm 1,0 UV-I 551 W/m 2,9 C 9,4 C 32,0 km/h (5 Bft) 0,00 %
01.10.2015 16:57 14,6 C 46 % 1025,4 hPa 0,0 l/m 14,8 km/h (3 Bft) SO 139 5 min 0,000 mm 1,0 UV-I 538 W/m 3,1 C 10,8 C 19,8 km/h (3 Bft) 0,00 %
01.10.2015 17:02 14,6 C 46 % 1025,3 hPa 0,0 l/m 10,4 km/h (2 Bft) O 95 5 min 0,000 mm 1,0 UV-I 526 W/m 3,1 C 12,5 C 15,8 km/h (3 Bft) 0,00 %
01.10.2015 17:07 14,7 C 46 % 1025,3 hPa 0,0 l/m 7,9 km/h (2 Bft) S 184 5 min 0,000 mm 1,0 UV-I 507 W/m 3,2 C 13,8 C 11,9 km/h (2 Bft) 0,00 %
01.10.2015 17:12 14,6 C 46 % 1025,3 hPa 0,0 l/m 6,8 km/h (2 Bft) SO 140 5 min 0,000 mm 1,0 UV-I 487 W/m 3,1 C 14,4 C 7,9 km/h (2 Bft) 0,00 %
01.10.2015 17:17 14,5 C 47 % 1025,3 hPa 0,0 l/m 25,6 km/h (4 Bft) O 88 5 min 0,000 mm 1,0 UV-I 465 W/m 3,3 C 7,8 C 32,0 km/h (5 Bft) 0,00 %
01.10.2015 17:22 14,4 C 48 % 1025,2 hPa 0,0 l/m 6,5 km/h (2 Bft) O-NO 73 5 min 0,000 mm 1,0 UV-I 449 W/m 3,5 C 14,4 C 7,9 km/h (2 Bft) 0,00 %
01.10.2015 17:27 14,2 C 48 % 1025,2 hPa 0,0 l/m 17,3 km/h (3 Bft) O-SO 104 5 min 0,000 mm 1,0 UV-I 427 W/m 3,4 C 9,5 C 19,8 km/h (3 Bft) 0,00 %
01.10.2015 17:32 14,1 C 49 % 1025,3 hPa 0,0 l/m 10,4 km/h (2 Bft) O-NO 76 5 min 0,000 mm 1,0 UV-I 402 W/m 3,6 C 11,9 C 15,8 km/h (3 Bft) 0,00 %
01.10.2015 17:37 14,0 C 48 % 1025,4 hPa 0,0 l/m 9,0 km/h (2 Bft) O-NO 58 5 min 0,000 mm 0,0 UV-I 380 W/m 3,2 C 12,5 C 11,9 km/h (2 Bft) 0,00 %
01.10.2015 17:42 14,0 C 49 % 1025,2 hPa 0,0 l/m 10,8 km/h (2 Bft) O-SO 121 5 min 0,000 mm 0,0 UV-I 359 W/m 3,5 C 11,6 C 11,9 km/h (2 Bft) 0,00 %
01.10.2015 17:47 13,9 C 50 % 1025,4 hPa 0,0 l/m 7,9 km/h (2 Bft) O 92 5 min 0,000 mm 0,0 UV-I 329 W/m 3,7 C 13,0 C 11,9 km/h (2 Bft) 0,00 %
01.10.2015 17:52 13,8 C 51 % 1025,3 hPa 0,0 l/m 13,0 km/h (3 Bft) O-NO 67 5 min 0,000 mm 0,0 UV-I 295 W/m 3,8 C 10,5 C 19,8 km/h (3 Bft) 0,00 %
01.10.2015 17:57 13,7 C 51 % 1025,3 hPa 0,0 l/m 16,6 km/h (3 Bft) O-SO 102 5 min 0,000 mm 0,0 UV-I 260 W/m 3,8 C 9,1 C 32,0 km/h (5 Bft) 0,00 %
01.10.2015 18:02 13,6 C 51 % 1025,4 hPa 0,0 l/m 8,3 km/h (2 Bft) O-SO 106 5 min 0,000 mm 0,0 UV-I 226 W/m 3,7 C 12,5 C 11,9 km/h (2 Bft) 0,00 %
01.10.2015 18:07 13,5 C 51 % 1025,5 hPa 0,0 l/m 9,0 km/h (2 Bft) O-NO 78 5 min 0,000 mm 0,0 UV-I 193 W/m 3,6 C 12,0 C 11,9 km/h (2 Bft) 0,00 %
01.10.2015 18:12 13,3 C 51 % 1025,5 hPa 0,0 l/m 6,8 km/h (2 Bft) N-NO 32 5 min 0,000 mm 0,0 UV-I 155 W/m 3,4 C 13,1 C 11,9 km/h (2 Bft) 0,00 %
01.10.2015 18:17 13,2 C 51 % 1025,6 hPa 0,0 l/m 9,0 km/h (2 Bft) O-SO 104 5 min 0,000 mm 0,0 UV-I 121 W/m 3,3 C 11,6 C 15,8 km/h (3 Bft) 0,00 %
01.10.2015 18:22 13,1 C 52 % 1025,5 hPa 0,0 l/m 14,8 km/h (3 Bft) O-SO 102 5 min 0,000 mm 0,0 UV-I 88 W/m 3,5 C 9,0 C 24,1 km/h (4 Bft) 0,00 %
01.10.2015 18:28 13,0 C 53 % 1025,7 hPa 0,0 l/m 4,0 km/h (1 Bft) O-SO 103 6 min 0,000 mm 0,0 UV-I 57 W/m 3,6 C 13,0 C 7,9 km/h (2 Bft) 0,00 %
01.10.2015 18:33 12,8 C 53 % 1026,0 hPa 0,0 l/m 11,9 km/h (2 Bft) O-SO 113 5 min 0,000 mm 0,0 UV-I 22 W/m 3,5 C 9,8 C 19,8 km/h (3 Bft) 0,00 %
01.10.2015 18:38 12,7 C 54 % 1026,3 hPa 0,0 l/m 10,8 km/h (2 Bft) O-NO 58 0 min 0,000 mm 0,0 UV-I 9 W/m 3,6 C 10,2 C 15,8 km/h (3 Bft) 0,00 %
01.10.2015 18:43 12,5 C 54 % 1026,4 hPa 0,0 l/m 9,4 km/h (2 Bft) O 87 0 min 0,000 mm 0,0 UV-I 3 W/m 3,5 C 10,7 C 15,8 km/h (3 Bft) 0,00 %
01.10.2015 18:48 12,4 C 54 % 1026,2 hPa 0,0 l/m 9,7 km/h (2 Bft) O 95 0 min 0,000 mm 0,0 UV-I 0 W/m 3,4 C 10,4 C 11,9 km/h (2 Bft) 0,00 %
01.10.2015 18:53 12,3 C 54 % 1026,4 hPa 0,0 l/m 5,4 km/h (1 Bft) O 90 0 min 0,000 mm 0,0 UV-I 0 W/m 3,3 C 12,3 C 7,9 km/h (2 Bft) 0,00 %
01.10.2015 18:58 12,3 C 54 % 1026,4 hPa 0,0 l/m 5,8 km/h (2 Bft) O 93 0 min 0,000 mm 0,0 UV-I 0 W/m 3,3 C 12,3 C 7,9 km/h (2 Bft) 0,00 %
01.10.2015 19:03 12,1 C 55 % 1026,3 hPa 0,0 l/m 3,2 km/h (1 Bft) O 85 0 min 0,000 mm 0,0 UV-I 0 W/m 3,3 C 12,1 C 7,9 km/h (2 Bft) 0,00 %
01.10.2015 19:08 12,0 C 56 % 1026,5 hPa 0,0 l/m 10,4 km/h (2 Bft) O 101 0 min 0,000 mm 0,0 UV-I 0 W/m 3,5 C 9,6 C 11,9 km/h (2 Bft) 0,00 %
01.10.2015 19:13 11,8 C 57 % 1026,5 hPa 0,0 l/m 2,2 km/h (1 Bft) SO 134 0 min 0,000 mm 0,0 UV-I 0 W/m 3,6 C 11,8 C 4,0 km/h (1 Bft) 0,00 %
01.10.2015 19:18 11,7 C 58 % 1026,5 hPa 0,0 l/m 1,8 km/h (1 Bft) O 88 0 min 0,000 mm 0,0 UV-I 0 W/m 3,7 C 11,7 C 4,0 km/h (1 Bft) 0,00 %
01.10.2015 19:23 11,5 C 58 % 1026,5 hPa 0,0 l/m 3,2 km/h (1 Bft) O 86 0 min 0,000 mm 0,0 UV-I 0 W/m 3,5 C 11,5 C 7,9 km/h (2 Bft) 0,00 %
01.10.2015 19:28 11,2 C 59 % 1026,5 hPa 0,0 l/m 3,2 km/h (1 Bft) O 94 0 min 0,000 mm 0,0 UV-I 0 W/m 3,5 C 11,2 C 4,0 km/h (1 Bft) 0,00 %
01.10.2015 19:33 11,0 C 59 % 1026,3 hPa 0,0 l/m 8,3 km/h (2 Bft) O-SO 107 0 min 0,000 mm 0,0 UV-I 0 W/m 3,3 C 9,7 C 11,9 km/h (2 Bft) 0,00 %
01.10.2015 19:38 11,0 C 59 % 1026,4 hPa 0,0 l/m 7,9 km/h (2 Bft) SO 127 0 min 0,000 mm 0,0 UV-I 0 W/m 3,3 C 10,0 C 11,9 km/h (2 Bft) 0,00 %
01.10.2015 19:43 11,1 C 59 % 1026,3 hPa 0,0 l/m 9,0 km/h (2 Bft) O-SO 113 0 min 0,000 mm 0,0 UV-I 0 W/m 3,4 C 9,4 C 11,9 km/h (2 Bft) 0,00 %
01.10.2015 19:48 11,1 C 58 % 1026,2 hPa 0,0 l/m 10,4 km/h (2 Bft) O 91 0 min 0,000 mm 0,0 UV-I 0 W/m 3,2 C 8,6 C 11,9 km/h (2 Bft) 0,00 %
01.10.2015 19:53 11,2 C 58 % 1026,1 hPa 0,0 l/m 6,8 km/h (2 Bft) O 91 0 min 0,000 mm 0,0 UV-I 0 W/m 3,2 C 10,9 C 7,9 km/h (2 Bft) 0,00 %
01.10.2015 19:58 11,3 C 58 % 1026,2 hPa 0,0 l/m 12,2 km/h (2 Bft) O-NO 75 0 min 0,000 mm 0,0 UV-I 0 W/m 3,3 C 7,9 C 19,8 km/h (3 Bft) 0,00 %
01.10.2015 20:03 11,2 C 58 % 1026,3 hPa 0,0 l/m 9,7 km/h (2 Bft) O 90 0 min 0,000 mm 0,0 UV-I 0 W/m 3,2 C 9,1 C 15,8 km/h (3 Bft) 0,00 %
01.10.2015 20:08 11,1 C 58 % 1026,2 hPa 0,0 l/m 7,2 km/h (2 Bft) O-NO 62 0 min 0,000 mm 0,0 UV-I 0 W/m 3,2 C 10,5 C 11,9 km/h (2 Bft) 0,00 %
01.10.2015 20:13 11,0 C 60 % 1026,3 hPa 0,0 l/m 10,8 km/h (2 Bft) O-SO 119 0 min 0,000 mm 0,0 UV-I 0 W/m 3,5 C 8,3 C 15,8 km/h (3 Bft) 0,00 %
01.10.2015 20:18 10,8 C 60 % 1026,3 hPa 0,0 l/m 4,7 km/h (1 Bft) O-NO 68 0 min 0,000 mm 0,0 UV-I 0 W/m 3,4 C 10,8 C 7,9 km/h (2 Bft) 0,00 %
01.10.2015 20:23 10,8 C 61 % 1026,2 hPa 0,0 l/m 9,0 km/h (2 Bft) O 93 0 min 0,000 mm 0,0 UV-I 0 W/m 3,6 C 9,1 C 11,9 km/h (2 Bft) 0,00 %
01.10.2015 20:28 10,7 C 61 % 1026,3 hPa 0,0 l/m 4,0 km/h (1 Bft) O-NO 77 0 min 0,000 mm 0,0 UV-I 0 W/m 3,5 C 10,7 C 7,9 km/h (2 Bft) 0,00 %
01.10.2015 20:33 10,6 C 61 % 1026,1 hPa 0,0 l/m 11,5 km/h (2 Bft) O 96 0 min 0,000 mm 0,0 UV-I 0 W/m 3,4 C 7,5 C 15,8 km/h (3 Bft) 0,00 %
01.10.2015 20:38 10,6 C 61 % 1025,9 hPa 0,0 l/m 9,0 km/h (2 Bft) O 93 0 min 0,000 mm 0,0 UV-I 0 W/m 3,4 C 8,8 C 11,9 km/h (2 Bft) 0,00 %
01.10.2015 20:43 10,5 C 61 % 1026,0 hPa 0,0 l/m 9,7 km/h (2 Bft) O 91 0 min 0,000 mm 0,0 UV-I 0 W/m 3,3 C 8,3 C 15,8 km/h (3 Bft) 0,00 %
01.10.2015 20:48 10,4 C 62 % 1026,0 hPa 0,0 l/m 6,8 km/h (2 Bft) NO 55 0 min 0,000 mm 0,0 UV-I 0 W/m 3,4 C 10,1 C 11,9 km/h (2 Bft) 0,00 %
01.10.2015 20:53 10,3 C 62 % 1026,1 hPa 0,0 l/m 10,4 km/h (2 Bft) O 98 0 min 0,000 mm 0,0 UV-I 0 W/m 3,3 C 7,7 C 11,9 km/h (2 Bft) 0,00 %
01.10.2015 20:58 10,3 C 62 % 1026,0 hPa 0,0 l/m 2,2 km/h (1 Bft) O-NO 71 0 min 0,000 mm 0,0 UV-I 0 W/m 3,3 C 10,3 C 7,9 km/h (2 Bft) 0,00 %
01.10.2015 21:03 10,1 C 63 % 1026,0 hPa 0,0 l/m 7,2 km/h (2 Bft) O 89 0 min 0,000 mm 0,0 UV-I 0 W/m 3,4 C 9,5 C 11,9 km/h (2 Bft) 0,00 %
01.10.2015 21:08 9,9 C 65 % 1026,1 hPa 0,0 l/m 6,5 km/h (2 Bft) NO 36 0 min 0,000 mm 0,0 UV-I 0 W/m 3,6 C 9,9 C 11,9 km/h (2 Bft) 0,00 %
01.10.2015 21:13 9,7 C 67 % 1025,9 hPa 0,0 l/m 0,7 km/h (0 Bft) NO 49 0 min 0,000 mm 0,0 UV-I 0 W/m 3,9 C 9,7 C 4,0 km/h (1 Bft) 0,00 %
01.10.2015 21:18 9,5 C 67 % 1026,2 hPa 0,0 l/m 0,7 km/h (0 Bft) N-NO 33 0 min 0,000 mm 0,0 UV-I 0 W/m 3,7 C 9,5 C 4,0 km/h (1 Bft) 0,00 %
01.10.2015 21:23 9,5 C 67 % 1026,0 hPa 0,0 l/m 1,4 km/h (1 Bft) O 92 0 min 0,000 mm 0,0 UV-I 0 W/m 3,7 C 9,5 C 4,0 km/h (1 Bft) 0,00 %
01.10.2015 21:28 9,5 C 67 % 1025,8 hPa 0,0 l/m 9,7 km/h (2 Bft) O 90 0 min 0,000 mm 0,0 UV-I 0 W/m 3,7 C 7,2 C 19,8 km/h (3 Bft) 0,00 %
01.10.2015 21:33 9,4 C 67 % 1026,0 hPa 0,0 l/m 7,9 km/h (2 Bft) O 100 0 min 0,000 mm 0,0 UV-I 0 W/m 3,6 C 8,3 C 11,9 km/h (2 Bft) 0,00 %
01.10.2015 21:38 9,4 C 68 % 1026,0 hPa 0,0 l/m 4,0 km/h (1 Bft) NO 53 0 min 0,000 mm 0,0 UV-I 0 W/m 3,8 C 9,4 C 7,9 km/h (2 Bft) 0,00 %
01.10.2015 21:43 9,3 C 68 % 1026,0 hPa 0,0 l/m 7,9 km/h (2 Bft) O 86 0 min 0,000 mm 0,0 UV-I 0 W/m 3,7 C 8,2 C 7,9 km/h (2 Bft) 0,00 %
01.10.2015 21:48 9,2 C 69 % 1026,0 hPa 0,0 l/m 1,4 km/h (1 Bft) O-NO 57 0 min 0,000 mm 0,0 UV-I 0 W/m 3,8 C 9,2 C 4,0 km/h (1 Bft) 0,00 %
01.10.2015 21:53 9,1 C 69 % 1026,0 hPa 0,0 l/m 1,8 km/h (1 Bft) O 92 0 min 0,000 mm 0,0 UV-I 0 W/m 3,7 C 9,1 C 4,0 km/h (1 Bft) 0,00 %
01.10.2015 21:58 9,0 C 70 % 1026,0 hPa 0,0 l/m 1,8 km/h (1 Bft) O-NO 59 0 min 0,000 mm 0,0 UV-I 0 W/m 3,8 C 9,0 C 7,9 km/h (2 Bft) 0,00 %
01.10.2015 22:03 9,0 C 70 % 1026,2 hPa 0,0 l/m 5,4 km/h (1 Bft) O-NO 66 0 min 0,000 mm 0,0 UV-I 0 W/m 3,8 C 9,0 C 11,9 km/h (2 Bft) 0,00 %
01.10.2015 22:08 8,9 C 71 % 1026,0 hPa 0,0 l/m 0,4 km/h (0 Bft) O-NO 64 0 min 0,000 mm 0,0 UV-I 0 W/m 3,9 C 8,9 C 4,0 km/h (1 Bft) 0,00 %
01.10.2015 22:13 8,9 C 71 % 1026,1 hPa 0,0 l/m 0,0 km/h (0 Bft) O-NO 73 0 min 0,000 mm 0,0 UV-I 0 W/m 3,9 C 8,9 C 0,0 km/h (0 Bft) 0,00 %
01.10.2015 22:18 8,7 C 71 % 1026,2 hPa 0,0 l/m 0,0 km/h (0 Bft) O-NO 78 0 min 0,000 mm 0,0 UV-I 0 W/m 3,7 C 8,7 C 0,0 km/h (0 Bft) 0,00 %
01.10.2015 22:23 8,5 C 72 % 1026,2 hPa 0,0 l/m 0,7 km/h (0 Bft) O-NO 65 0 min 0,000 mm 0,0 UV-I 0 W/m 3,7 C 8,5 C 4,0 km/h (1 Bft) 0,00 %
01.10.2015 22:28 8,3 C 72 % 1026,1 hPa 0,0 l/m 0,7 km/h (0 Bft) O 95 0 min 0,000 mm 0,0 UV-I 0 W/m 3,6 C 8,3 C 4,0 km/h (1 Bft) 0,00 %
01.10.2015 22:33 8,2 C 73 % 1026,1 hPa 0,0 l/m 3,2 km/h (1 Bft) O-SO 119 0 min 0,000 mm 0,0 UV-I 0 W/m 3,7 C 8,2 C 4,0 km/h (1 Bft) 0,00 %
01.10.2015 22:38 8,2 C 73 % 1026,1 hPa 0,0 l/m 5,8 km/h (2 Bft) O 93 0 min 0,000 mm 0,0 UV-I 0 W/m 3,7 C 8,2 C 7,9 km/h (2 Bft) 0,00 %
01.10.2015 22:43 8,2 C 73 % 1026,1 hPa 0,0 l/m 0,7 km/h (0 Bft) O-NO 62 0 min 0,000 mm 0,0 UV-I 0 W/m 3,7 C 8,2 C 4,0 km/h (1 Bft) 0,00 %
01.10.2015 22:48 8,3 C 73 % 1026,1 hPa 0,0 l/m 2,9 km/h (1 Bft) O-NO 75 0 min 0,000 mm 0,0 UV-I 0 W/m 3,8 C 8,3 C 4,0 km/h (1 Bft) 0,00 %
01.10.2015 22:53 8,2 C 73 % 1026,1 hPa 0,0 l/m 0,4 km/h (0 Bft) O-NO 74 0 min 0,000 mm 0,0 UV-I 0 W/m 3,7 C 8,2 C 4,0 km/h (1 Bft) 0,00 %
01.10.2015 22:58 8,2 C 73 % 1026,3 hPa 0,0 l/m 3,2 km/h (1 Bft) O 95 0 min 0,000 mm 0,0 UV-I 0 W/m 3,7 C 8,2 C 4,0 km/h (1 Bft) 0,00 %
01.10.2015 23:03 8,1 C 73 % 1026,3 hPa 0,0 l/m 0,7 km/h (0 Bft) O-NO 59 0 min 0,000 mm 0,0 UV-I 0 W/m 3,6 C 8,1 C 4,0 km/h (1 Bft) 0,00 %
01.10.2015 23:08 8,1 C 73 % 1026,4 hPa 0,0 l/m 2,9 km/h (1 Bft) O-SO 112 0 min 0,000 mm 0,0 UV-I 0 W/m 3,6 C 8,1 C 4,0 km/h (1 Bft) 0,00 %
01.10.2015 23:13 8,0 C 73 % 1026,3 hPa 0,0 l/m 0,7 km/h (0 Bft) O 82 0 min 0,000 mm 0,0 UV-I 0 W/m 3,5 C 8,0 C 4,0 km/h (1 Bft) 0,00 %
01.10.2015 23:18 7,9 C 75 % 1026,2 hPa 0,0 l/m 0,4 km/h (0 Bft) O-NO 58 0 min 0,000 mm 0,0 UV-I 0 W/m 3,7 C 7,9 C 4,0 km/h (1 Bft) 0,00 %
01.10.2015 23:23 7,8 C 75 % 1026,4 hPa 0,0 l/m 0,0 km/h (0 Bft) O-SO 106 0 min 0,000 mm 0,0 UV-I 0 W/m 3,7 C 7,8 C 0,0 km/h (0 Bft) 0,00 %
01.10.2015 23:28 7,6 C 75 % 1026,3 hPa 0,0 l/m 0,7 km/h (0 Bft) O 91 0 min 0,000 mm 0,0 UV-I 0 W/m 3,5 C 7,6 C 4,0 km/h (1 Bft) 0,00 %
01.10.2015 23:33 7,6 C 76 % 1026,2 hPa 0,0 l/m 4,0 km/h (1 Bft) O 88 0 min 0,000 mm 0,0 UV-I 0 W/m 3,6 C 7,6 C 4,0 km/h (1 Bft) 0,00 %
01.10.2015 23:38 7,6 C 75 % 1026,3 hPa 0,0 l/m 4,3 km/h (1 Bft) O 93 0 min 0,000 mm 0,0 UV-I 0 W/m 3,5 C 7,6 C 7,9 km/h (2 Bft) 0,00 %
01.10.2015 23:43 7,6 C 76 % 1026,4 hPa 0,0 l/m 1,8 km/h (1 Bft) O 84 0 min 0,000 mm 0,0 UV-I 0 W/m 3,6 C 7,6 C 4,0 km/h (1 Bft) 0,00 %
01.10.2015 23:48 7,5 C 76 % 1026,2 hPa 0,0 l/m 0,7 km/h (0 Bft) O-NO 78 0 min 0,000 mm 0,0 UV-I 0 W/m 3,5 C 7,5 C 4,0 km/h (1 Bft) 0,00 %
01.10.2015 23:53 7,5 C 76 % 1026,5 hPa 0,0 l/m 2,9 km/h (1 Bft) O 79 0 min 0,000 mm 0,0 UV-I 0 W/m 3,5 C 7,5 C 4,0 km/h (1 Bft) 0,00 %
01.10.2015 23:58 7,4 C 76 % 1026,2 hPa 0,0 l/m 2,9 km/h (1 Bft) O 80 0 min 0,000 mm 0,0 UV-I 0 W/m 3,5 C 7,4 C 4,0 km/h (1 Bft) 0,00 %
_ Min-Zeit 02:17 13:52 16:32 - 00:01 - - - - - - 00:01 07:12 00:01 00:01
Minimum _ 3,3 C 42 % 1025,1 hPa - 0,0 km/h (0 Bft) - - - - - - 0,5 C -0,8 C 0,0 km/h (0 Bft) 0,00 %
_ Max-Zeit 15:52 02:27 00:01 00:01 16:32 - - 15:12 00:01 10:47 14:47 22:08 14:37 16:32 00:01
Maximum _ 15,2 C 85 % 1030,1 hPa 0,0 l/m 26,6 km/h
O (4 Bft)
- - 10 min 0,000 mm 2,0 UV-I 717 W/m 3,9 C 15,0 C 36,0 km/h
O (5 Bft)
0,00 %
Durchschnitt _ 9,3 C 63 % 1027,0 hPa #0,0 l/m 7,3 km/h (2 Bft) O - #8:46 h #0,000 mm 1,3 UV-I 393 W/m 2,2 C 7,8 C 11,4 km/h (2 Bft) 0,00 %